When you browse on this site, cookies collect data to enhance your experience and personalize the content and advertising you see.
Visit our Privacy Policy to learn more. By continuing to use the site, you agree to this use of cookies and data.
  • In United Kingdom
  • List of Countries
  • For 7 days
  • Water Temperature
  • Satellite Maps
  • Weather Map
  • Weather Widgets
  • user-avatar
    Login

    Hourly Weather Vishlevo

    Today, 19 February, Tuesday

    Time Temperature Precipitation Wind Pressure Humidity
    00:00 -4°C° 0 mm 4 mps 755 mmHg 73%
    01:00 -4°C° 0 mm 4 mps 754 mmHg 74%
    02:00 -4°C° 0 mm 4 mps 754 mmHg 81%
    03:00 -4°C° 0 mm 5 mps 753 mmHg 83%
    04:00 -4°C° 0 mm 5 mps 752 mmHg 86%
    05:00 -4°C° 0 mm 5 mps 752 mmHg 88%
    06:00 -4°C° 0 mm 5 mps 751 mmHg 88%
    07:00 -2°C° 0 mm 5 mps 751 mmHg 89%
    08:00 -4°C° 0 mm 5 mps 751 mmHg 89%
    09:00 -2°C° 0 mm 5 mps 750 mmHg 87%
    10:00 -1°C° 0 mm 5 mps 750 mmHg 86%
    11:00 0°C° 0 mm 5 mps 749 mmHg 85%
    12:00 0°C° 0 mm 5 mps 748 mmHg 85%
    13:00 +1°C° 0 mm 5 mps 748 mmHg 84%
    14:00 +1°C° 0 mm 5 mps 747 mmHg 84%
    15:00 +1°C° 0 mm 5 mps 746 mmHg 86%
    16:00 +1°C° 0 mm 5 mps 746 mmHg 87%
    17:00 0°C° 0 mm 5 mps 745 mmHg 89%
    18:00 +1°C° 0 mm 5 mps 744 mmHg 89%
    19:00 +1°C° 0 mm 5 mps 743 mmHg 90%
    20:00 +1°C° 0 mm 5 mps 743 mmHg 90%
    21:00 0°C° 0.1 mm 5 mps 742 mmHg 90%
    22:00 0°C° 0.1 mm 4 mps 742 mmHg 90%
    23:00 0°C° 0.1 mm 4 mps 741 mmHg 90%

    Tomorrow, 20 February, Wednesday

    Time Temperature Precipitation Wind Pressure Humidity
    00:00 0°C° 0.4 mm 4 mps 741 mmHg 91%
    01:00 0°C° 0.4 mm 4 mps 741 mmHg 91%
    02:00 0°C° 0.4 mm 4 mps 741 mmHg 92%
    03:00 0°C° 0 mm 4 mps 740 mmHg 92%
    04:00 0°C° 0 mm 4 mps 740 mmHg 92%
    05:00 0°C° 0 mm 4 mps 740 mmHg 92%
    06:00 0°C° 0.1 mm 5 mps 740 mmHg 91%
    07:00 0°C° 0.1 mm 5 mps 740 mmHg 91%
    08:00 0°C° 0.1 mm 5 mps 740 mmHg 90%
    09:00 +1°C° 0 mm 5 mps 739 mmHg 89%
    10:00 +1°C° 0 mm 5 mps 739 mmHg 88%
    11:00 +1°C° 0 mm 5 mps 739 mmHg 87%
    12:00 +1°C° 0.2 mm 5 mps 739 mmHg 86%
    13:00 +1°C° 0.2 mm 5 mps 739 mmHg 86%
    14:00 +1°C° 0.2 mm 6 mps 738 mmHg 85%
    15:00 -1°C° 0.2 mm 6 mps 739 mmHg 80%
    16:00 -2°C° 0.2 mm 6 mps 739 mmHg 75%
    17:00 -3°C° 0.2 mm 6 mps 739 mmHg 71%
    18:00 -3°C° 0.1 mm 6 mps 740 mmHg 74%
    19:00 -4°C° 0.1 mm 6 mps 740 mmHg 77%
    20:00 -5°C° 0.1 mm 6 mps 741 mmHg 80%
    21:00 -5°C° 0.2 mm 6 mps 741 mmHg 79%
    22:00 -5°C° 0.2 mm 6 mps 742 mmHg 78%
    23:00 -5°C° 0.2 mm 6 mps 742 mmHg 78%

    Day after tomorrow, 21 February, Thursday

    Time Temperature Precipitation Wind Pressure Humidity
    00:00 -6°C° 0.1 mm 7 mps 743 mmHg 76%
    01:00 -7°C° 0.1 mm 7 mps 743 mmHg 75%
    02:00 -7°C° 0.1 mm 7 mps 744 mmHg 74%
    03:00 -7°C° 0.1 mm 7 mps 744 mmHg 73%
    04:00 -8°C° 0.1 mm 7 mps 745 mmHg 71%
    05:00 -8°C° 0.1 mm 7 mps 745 mmHg 70%
    06:00 -8°C° 0.1 mm 7 mps 746 mmHg 70%
    07:00 -8°C° 0.1 mm 7 mps 747 mmHg 70%
    08:00 -9°C° 0.1 mm 7 mps 748 mmHg 71%
    09:00 -8°C° 0 mm 6 mps 749 mmHg 69%
    10:00 -8°C° 0 mm 6 mps 750 mmHg 67%
    11:00 -8°C° 0 mm 6 mps 750 mmHg 65%
    12:00 -8°C° 0 mm 6 mps 751 mmHg 64%
    13:00 -8°C° 0 mm 6 mps 752 mmHg 63%
    14:00 -7°C° 0 mm 5 mps 752 mmHg 62%
    15:00 -7°C° 0 mm 5 mps 753 mmHg 63%
    16:00 -8°C° 0 mm 5 mps 754 mmHg 64%
    17:00 -8°C° 0 mm 4 mps 754 mmHg 64%
    18:00 -8°C° 0 mm 4 mps 755 mmHg 65%
    19:00 -9°C° 0 mm 4 mps 756 mmHg 66%
    20:00 -9°C° 0 mm 4 mps 757 mmHg 66%
    21:00 -10°C° 0 mm 4 mps 758 mmHg 67%
    22:00 -10°C° 0 mm 4 mps 758 mmHg 67%
    23:00 -10°C° 0 mm 4 mps 759 mmHg 68%

    22 February, Friday

    Time Temperature Precipitation Wind Pressure Humidity
    00:00 -11°C° 0 mm 4 mps 760 mmHg 70%
    01:00 -10°C° 0 mm 3 mps 760 mmHg 72%
    02:00 -10°C° 0 mm 3 mps 761 mmHg 74%
    03:00 -10°C° 0 mm 3 mps 761 mmHg 74%
    04:00 -10°C° 0 mm 3 mps 762 mmHg 74%
    05:00 -11°C° 0 mm 4 mps 762 mmHg 73%
    06:00 -12°C° 0 mm 3 mps 763 mmHg 73%
    07:00 -12°C° 0 mm 3 mps 763 mmHg 72%
    08:00 -12°C° 0 mm 3 mps 764 mmHg 71%
    09:00 -11°C° 0 mm 4 mps 764 mmHg 65%
    10:00 -10°C° 0 mm 4 mps 764 mmHg 59%
    11:00 -10°C° 0 mm 5 mps 765 mmHg 52%
    12:00 -8°C° 0 mm 5 mps 765 mmHg 53%
    13:00 -8°C° 0 mm 5 mps 765 mmHg 55%
    14:00 -7°C° 0 mm 5 mps 765 mmHg 56%
    15:00 -8°C° 0 mm 5 mps 765 mmHg 59%
    16:00 -8°C° 0 mm 4 mps 765 mmHg 63%
    17:00 -9°C° 0 mm 4 mps 765 mmHg 67%
    18:00 -9°C° 0 mm 4 mps 766 mmHg 70%
    19:00 -10°C° 0 mm 4 mps 767 mmHg 73%
    20:00 -10°C° 0 mm 4 mps 767 mmHg 76%
    21:00 -10°C° 0 mm 3 mps 767 mmHg 77%
    22:00 -10°C° 0 mm 3 mps 768 mmHg 78%
    23:00 -10°C° 0 mm 3 mps 768 mmHg 79%

    23 February, Saturday

    Time Temperature Precipitation Wind Pressure Humidity
    00:00 -10°C° 0 mm 3 mps 768 mmHg 81%
    01:00 -10°C° 0 mm 2 mps 768 mmHg 82%
    02:00 -10°C° 0 mm 2 mps 768 mmHg 84%
    03:00 -10°C° 0 mm 2 mps 768 mmHg 84%
    04:00 -10°C° 0 mm 2 mps 768 mmHg 85%
    05:00 -10°C° 0 mm 2 mps 768 mmHg 86%
    06:00 -10°C° 0 mm 2 mps 768 mmHg 84%
    07:00 -9°C° 0 mm 1 mps 768 mmHg 83%
    08:00 -9°C° 0 mm 1 mps 768 mmHg 82%
    09:00 -8°C° 0 mm 1 mps 768 mmHg 76%
    10:00 -7°C° 0 mm 1 mps 768 mmHg 70%
    11:00 -6°C° 0 mm 1 mps 768 mmHg 64%
    12:00 -6°C° 0 mm 1 mps 768 mmHg 60%
    13:00 -4°C° 0 mm 1 mps 767 mmHg 56%
    14:00 -3°C° 0 mm 1 mps 767 mmHg 52%
    15:00 -4°C° 0 mm 1 mps 767 mmHg 56%
    16:00 -4°C° 0 mm 1 mps 767 mmHg 61%
    17:00 -4°C° 0 mm 1 mps 767 mmHg 65%
    18:00 -4°C° 0 mm 1 mps 767 mmHg 67%
    19:00 -4°C° 0 mm 1 mps 767 mmHg 69%
    20:00 -4°C° 0 mm 1 mps 767 mmHg 70%
    21:00 -4°C° 0 mm 1 mps 767 mmHg 72%
    22:00 -4°C° 0 mm 1 mps 767 mmHg 74%
    23:00 -4°C° 0 mm 1 mps 767 mmHg 76%

    24 February, Sunday

    Time Temperature Precipitation Wind Pressure Humidity
    00:00 -4°C° 0 mm 1 mps 768 mmHg 79%
    01:00 -3°C° 0 mm 1 mps 768 mmHg 81%
    02:00 -3°C° 0 mm 1 mps 768 mmHg 84%
    03:00 -3°C° 0 mm 1 mps 768 mmHg 87%
    04:00 -3°C° 0 mm 1 mps 768 mmHg 90%
    05:00 -3°C° 0 mm 1 mps 768 mmHg 93%
    06:00 -3°C° 0 mm 1 mps 768 mmHg 93%
    07:00 -3°C° 0 mm 1 mps 768 mmHg 94%
    08:00 -3°C° 0 mm 1 mps 768 mmHg 95%
    09:00 -2°C° 0 mm 1 mps 768 mmHg 92%
    10:00 -1°C° 0 mm 1 mps 768 mmHg 89%
    11:00 -2°C° 0 mm 2 mps 768 mmHg 87%
    12:00 -1°C° 0 mm 2 mps 767 mmHg 86%
    13:00 -1°C° 0 mm 2 mps 767 mmHg 85%
    14:00 -1°C° 0 mm 2 mps 767 mmHg 85%
    15:00 -1°C° 0 mm 2 mps 766 mmHg 86%
    16:00 -1°C° 0 mm 2 mps 766 mmHg 88%
    17:00 -1°C° 0 mm 2 mps 766 mmHg 89%
    18:00 -1°C° 0 mm 3 mps 765 mmHg 90%
    19:00 -1°C° 0 mm 3 mps 765 mmHg 91%
    20:00 -1°C° 0 mm 3 mps 765 mmHg 93%
    21:00 -1°C° 0 mm 3 mps 764 mmHg 93%
    22:00 -1°C° 0 mm 3 mps 764 mmHg 94%
    23:00 -1°C° 0 mm 3 mps 763 mmHg 94%
    Show more